Corpus Christi, TX

2:48 AM CST on February 21, 2017 (GMT -0600)
Corpus Christi International

Weather History for KCRP - August, 2012

Change the Weather History Date:

Tuesday, August 7, 2012

  Actual Average Record
Temperature  
Mean Temperature 87 °F 85 °F  
Max Temperature 99 °F 95 °F 101 °F (1940)
Min Temperature 75 °F 75 °F 71 °F (1999)
Degree Days  
Heating Degree Days 0 0  
Month to date heating degree days 0 0  
Since 1 June heating degree days 0 0  
Since 1 July heating degree days 0 0  
Cooling Degree Days 22 20  
Month to date cooling degree days 152 140  
Year to date cooling degree days 2652 2090  
Since 1 June cooling degree days 1419 1249  
Growing Degree Days 37 (Base 50)    
Moisture  
Dew Point 72 °F    
Average Humidity 63    
Maximum Humidity 87    
Minimum Humidity 38    
Precipitation  
Precipitation 0.00 in 0.05 in 0.91 in (1894)
Month to date precipitation 0.01 0.41  
Year to date precipitation 14.31 16.83  
Snow  
Snow 0.00 in - - ()
Month to date snowfall 0.0  
Since 1 June snowfall 0.0  
Since 1 July snowfall 0.0  
Snow Depth 0.00 in    
Sea Level Pressure  
Sea Level Pressure 29.94 in    
Wind  
Wind Speed 7 mph (SE)    
Max Wind Speed 16 mph    
Max Gust Speed 22 mph    
Visibility 10 miles    
Events      
T = Trace of Precipitation, MM = Missing Value Source: NWS Daily Summary

Daily Weather History Graph

Daily Weather History Graph

Search for Another Location

Airport or City:

Trip Planner

Search our weather history database for the weather conditions in past years. The results will help you decide how hot, cold, wet, or windy it might be!

Date:

Astronomy

Aug. 07, 2012 Rise Set
Actual Time 6:56 AM CDT 8:14 PM CDT
Civil Twilight 6:31 AM CDT 8:39 PM CDT
Nautical Twilight 6:01 AM CDT 9:08 PM CDT
Astronomical Twilight 5:31 AM CDT 9:39 PM CDT
Moon 11:35 PM CDT (8/7) 12:07 PM CDT (8/7)
Length of Visible Light 14h 07m
Length of Day
13h 18m
Waning Gibbous, 69% of the Moon is Illuminated
Aug 7
Waning Gibbous
Aug 9
Last Quarter
Aug 17
New
Aug 24
First Quarter
Aug 31
Full

Hourly Weather History & Observations

Time (CDT) Temp. Heat Index Dew Point Humidity Pressure Visibility Wind Dir Wind Speed Gust Speed Precip Events Conditions
12:51 AM 80.1 °F 84.2 °F 73.0 °F 79% 29.97 in 10.0 mi Calm Calm - N/A   Clear
1:51 AM 78.1 °F - 72.0 °F 81% 29.96 in 10.0 mi South 3.5 mph - N/A   Clear
2:51 AM 78.1 °F - 72.0 °F 81% 29.95 in 10.0 mi South 5.8 mph - N/A   Clear
3:51 AM 78.1 °F - 73.0 °F 84% 29.94 in 10.0 mi Calm Calm - N/A   Clear
4:51 AM 75.9 °F - 71.1 °F 85% 29.94 in 10.0 mi South 3.5 mph - N/A   Clear
5:51 AM 75.0 °F - 71.1 °F 87% 29.95 in 10.0 mi South 4.6 mph - N/A   Partly Cloudy
6:51 AM 75.0 °F - 71.1 °F 87% 29.96 in 10.0 mi Calm Calm - N/A   Partly Cloudy
7:51 AM 79.0 °F - 73.9 °F 84% 29.97 in 10.0 mi Calm Calm - N/A   Partly Cloudy
8:51 AM 82.9 °F 90.2 °F 75.0 °F 77% 29.98 in 9.0 mi SSW 5.8 mph - N/A   Partly Cloudy
9:51 AM 87.1 °F 95.4 °F 73.9 °F 65% 29.98 in 9.0 mi WSW 5.8 mph - N/A   Partly Cloudy
10:51 AM 91.0 °F 95.6 °F 69.1 °F 48% 29.98 in 10.0 mi Calm Calm - N/A   Partly Cloudy
11:51 AM 93.0 °F 97.9 °F 69.1 °F 45% 29.98 in 10.0 mi Calm Calm - N/A   Scattered Clouds
12:51 PM 95.0 °F 104.5 °F 73.0 °F 49% 29.96 in 10.0 mi East 8.1 mph - N/A   Scattered Clouds
1:51 PM 97.0 °F 103.5 °F 70.0 °F 41% 29.94 in 10.0 mi Variable 5.8 mph - N/A   Scattered Clouds
2:51 PM 96.1 °F 99.9 °F 66.9 °F 38% 29.92 in 10.0 mi East 9.2 mph - N/A   Scattered Clouds
3:51 PM 97.0 °F 102.8 °F 69.1 °F 40% 29.91 in 10.0 mi ESE 16.1 mph - N/A   Scattered Clouds
4:51 PM 95.0 °F 99.0 °F 66.9 °F 40% 29.89 in 10.0 mi ESE 10.4 mph 18.4 mph N/A   Partly Cloudy
5:51 PM 93.0 °F 97.9 °F 69.1 °F 45% 29.88 in 10.0 mi East 15.0 mph - N/A   Partly Cloudy
6:51 PM 91.0 °F 98.2 °F 72.0 °F 53% 29.88 in 10.0 mi East 16.1 mph - N/A   Partly Cloudy
7:51 PM 88.0 °F 94.7 °F 72.0 °F 59% 29.89 in 10.0 mi ESE 12.7 mph - N/A   Clear
8:51 PM 86.0 °F 93.0 °F 73.0 °F 65% 29.91 in 10.0 mi SE 12.7 mph - N/A   Clear
9:51 PM 84.9 °F 93.3 °F 75.0 °F 72% 29.93 in 10.0 mi SE 12.7 mph - N/A   Clear
10:51 PM 84.9 °F 92.1 °F 73.9 °F 69% 29.94 in 10.0 mi SE 9.2 mph - N/A   Partly Cloudy
11:51 PM 84.0 °F 91.2 °F 73.9 °F 72% 29.94 in 10.0 mi SSE 6.9 mph - N/A   Partly Cloudy